FW7771 Weather Reports


time (UTC)temp
C
wind
direction
speed
KPH
gust
KPH
rain 1hr
cm
rain 24hr
cm
rain mn
cm
humidity
%
barometer
mb
20260507093100 2 0 0.0 6.4 0.00 0.00 0.00 70 1013.2
20260507091600 2 27 0.0 4.8 0.00 0.00 0.00 70 1013.2
20260507090113 1 26 0.0 3.2 0.00 0.00 0.00 70 1013.3
20260507084601 1 0 0.0 3.2 0.00 0.00 0.00 71 1013.2
20260507083057 1 24 1.6 3.2 0.00 0.00 0.00 69 1013.4
20260507081559 1 24 1.6 4.8 0.00 0.00 0.00 71 1013.5
20260507074559 -1 24 0.0 3.2 0.00 0.00 0.00 75 1013.6
20260507073059 -1 0 0.0 1.6 0.00 0.00 0.00 74 1013.7
20260507071609 0 0 0.0 0.0 0.00 0.00 0.00 73 1013.8
20260507070100 0 0 0.0 0.0 0.00 0.00 0.00 72 1013.8
20260507064613 0 0 0.0 0.0 0.00 0.00 0.00 71 1014.2
20260507063058 0 0 0.0 0.0 0.00 0.00 0.00 71 1014.2
20260507061600 0 0 0.0 0.0 0.00 0.00 0.00 71 1014.4
20260507060100 0 0 0.0 1.6 0.00 0.00 0.00 71 1014.4
20260507054608 1 0 0.0 3.2 0.00 0.00 0.00 68 1014.6
20260507053059 1 0 0.0 0.0 0.00 0.00 0.00 68 1014.6
20260507051600 1 0 0.0 0.0 0.00 0.00 0.00 68 1014.6
20260507044558 1 0 0.0 0.0 0.00 0.00 0.00 67 1014.6
20260507043103 0 0 0.0 0.0 0.00 0.00 0.00 69 1014.7
20260507041608 0 0 0.0 0.0 0.00 0.00 0.00 69 1014.7
20260507040100 1 0 0.0 0.0 0.00 0.00 0.00 67 1014.8
20260507034607 1 0 0.0 0.0 0.00 0.00 0.00 68 1014.9
20260507033058 1 0 0.0 0.0 0.00 0.00 0.00 66 1015.1
20260507031600 1 0 0.0 1.6 0.00 0.00 0.00 64 1015.1
20260507024604 2 0 0.0 0.0 0.00 0.00 0.00 63 1014.9
20260507023113 3 0 0.0 0.0 0.00 0.00 0.00 62 1014.7
20260507021558 3 0 0.0 4.8 0.00 0.00 0.00 60 1014.7
20260507020059 5 0 0.0 4.8 0.00 0.00 0.00 56 1014.9
20260507014608 5 0 0.0 1.6 0.00 0.00 0.00 56 1014.8
20260507013114 6 0 0.0 4.8 0.00 0.00 0.00 53 1014.7
20260507011558 7 296 3.2 8.0 0.00 0.00 0.00 52 1014.6
20260507010100 7 302 8.0 16.1 0.00 0.00 0.00 49 1014.7
20260507004557 7 292 14.5 19.3 0.00 0.00 0.00 48 1014.9
20260507003056 7 281 14.5 25.7 0.00 0.00 0.00 47 1015.0
20260507001620 7 277 14.5 22.5 0.00 0.00 0.00 47 1015.0
20260506234558 8 266 12.9 17.7 0.00 0.00 0.00 46 1015.1
20260506233107 8 288 19.3 29.0 0.00 0.00 0.00 47 1015.3
20260506231600 8 271 12.9 27.4 0.00 0.00 0.00 47 1015.4
20260506230059 8 299 22.5 33.8 0.00 0.00 0.00 46 1015.5
20260506224557 8 265 24.1 33.8 0.00 0.00 0.00 46 1015.5
20260506223123 8 261 24.1 33.8 0.00 0.00 0.00 45 1015.6
20260506221603 8 294 24.1 33.8 0.00 0.00 0.00 45 1015.6
20260506220059 8 245 19.3 32.2 0.00 0.00 0.00 46 1015.8
20260506214609 7 240 27.4 37.0 0.00 0.00 0.00 46 1016.0
20260506213059 8 238 24.1 38.6 0.00 0.00 0.00 46 1016.1
20260506211558 8 272 24.1 41.8 0.00 0.00 0.00 47 1016.2
20260506210125 8 256 24.1 32.2 0.00 0.00 0.00 46 1016.2
20260506204558 7 265 24.1 35.4 0.00 0.00 0.00 47 1016.4
20260506203104 7 254 22.5 35.4 0.00 0.00 0.00 47 1016.6
20260506201558 7 256 27.4 37.0 0.00 0.00 0.00 46 1016.7
20260506200150 7 261 19.3 33.8 0.00 0.00 0.00 48 1016.6
20260506194612 7 252 20.9 33.8 0.00 0.00 0.00 48 1016.6
20260506193058 7 261 19.3 38.6 0.00 0.00 0.00 49 1016.7
20260506191600 7 265 24.1 35.4 0.00 0.00 0.00 47 1016.7
20260506190100 7 246 17.7 35.4 0.00 0.00 0.00 48 1016.8
20260506184600 7 289 17.7 37.0 0.00 0.00 0.00 50 1016.9
20260506183059 6 241 27.4 38.6 0.00 0.00 0.00 50 1017.0
20260506181600 6 248 19.3 32.2 0.00 0.00 0.00 52 1017.1
20260506180108 6 247 24.1 33.8 0.00 0.00 0.00 52 1017.2
20260506174559 5 254 24.1 32.2 0.00 0.00 0.00 52 1017.2
20260506173124 5 255 19.3 33.8 0.00 0.00 0.00 55 1017.3
20260506171603 5 254 24.1 33.8 0.00 0.00 0.00 55 1017.5
20260506170059 5 257 24.1 32.2 0.00 0.00 0.00 56 1017.5
20260506164600 5 271 20.9 27.4 0.00 0.00 0.00 57 1017.5
20260506163106 4 289 20.9 29.0 0.00 0.00 0.00 58 1017.6
20260506161559 4 274 20.9 30.6 0.00 0.00 0.00 59 1017.6
20260506160108 4 250 17.7 24.1 0.00 0.00 0.00 61 1017.6
20260506154600 3 247 14.5 22.5 0.00 0.00 0.00 62 1017.6
20260506153057 3 271 9.7 14.5 0.00 0.00 0.00 61 1017.5
20260506151559 3 252 8.0 14.5 0.00 0.00 0.00 61 1017.6
20260506150105 3 290 9.7 16.1 0.00 0.00 0.00 61 1017.6
20260506144600 3 301 9.7 12.9 0.00 0.00 0.00 61 1017.6
20260506143104 3 295 9.7 14.5 0.00 0.00 0.00 62 1017.5
20260506141608 3 296 9.7 14.5 0.00 0.00 0.00 62 1017.6
20260506134620 2 290 4.8 12.9 0.00 0.00 0.00 63 1017.4
20260506133101 2 309 4.8 11.3 0.00 0.00 0.00 65 1017.4
20260506131612 2 256 4.8 11.3 0.00 0.00 0.00 69 1017.3
20260506130100 2 261 4.8 9.7 0.00 0.00 0.00 72 1017.3
20260506124609 2 301 6.4 11.3 0.00 0.00 0.00 72 1017.0
20260506123059 2 283 4.8 9.7 0.00 0.00 0.00 72 1016.8
20260506121608 1 286 3.2 6.4 0.00 0.00 0.00 73 1016.6
20260506114558 1 289 4.8 8.0 0.00 0.00 0.00 74 1016.0
20260506113059 1 292 3.2 8.0 0.00 0.00 0.00 74 1015.8
20260506111618 1 298 4.8 8.0 0.00 0.00 0.00 74 1015.6
20260506110058 1 303 6.4 8.0 0.00 0.00 0.00 74 1015.4
20260506104605 0 300 6.4 11.3 0.00 0.00 0.00 74 1015.4
20260506103107 0 253 3.2 8.0 0.00 0.00 0.00 75 1015.4
20260506101558 0 252 4.8 8.0 0.00 0.00 0.00 75 1015.8
20260506100105 0 255 4.8 9.7 0.00 0.00 0.00 77 1015.8
20260506094559 -2 0 0.0 1.6 0.00 0.00 0.00 79 1015.5